Location: Abundant Grace Fellowship
(35.0349°N, 90.0924°W)
Time: 20:42:30
(UTC+00:00)

Cosmos 1707 Rocket - Pass Details

Date: 18 January 2026
Orbit: 598 x 624 km, 82.5° (Epoch: 10 February)

Event Time Altitude Azimuth Distance (km) Brightness Sun altitude
Rises 00:57:46 0° 188° (S) 2,847 7.2 -21.0°
Reaches altitude 10° 00:59:59 10° 189° (S) 1,944 6.3 -21.4°
Maximum altitude 01:04:17 81° 277° (W) 614 3.5 -22.3°
Enters shadow 01:06:20 31° 1° (N) 1,074 4.6 -22.7°
